This demonstration page uses our WeatherBlox Daily Observations layout. Learn more.

Left ArrowRight Arrow

39.51506, -84.39828

Hourly Observations for November 19, 2021

Temp ( °F °C ) Dew Point ( °F °C ) Humidity (%) Winds ( mph kmh ) Pressure ( in mb ) Visibility ( mi km ) Precip ( " mm )
12:15 am 00:15 Mostly Cloudy 30 -0.9 17 -8.2 58 58 WNW 3 6 30.46 1031 10 16 0.00 0.00
12:35 am 00:35 Cloudy 31 -0.6 18 -7.6 60 60 WNW 5 7 30.46 1031 10 16 0.00 0.00
12:55 am 00:55 Cloudy 32 -0.2 19 -7.5 58 58 WNW 5 7 30.46 1031 10 16 0.00 0.00
1:15 am 01:15 Cloudy 32 0.1 17 -8.2 54 54 NW 8 13 30.46 1031 10 16 0.00 0.00
1:35 am 01:35 Cloudy 33 0.3 17 -8.4 52 52 NNW 12 19 30.45 1031 10 16 0.00 0.00
1:55 am 01:55 Cloudy 33 0.3 17 -8.2 53 53 NW 10 17 30.45 1031 10 16 0.00 0.00
2:15 am 02:15 Cloudy 33 0.3 16 -9 50 50 NW 8 13 30.46 1032 10 16 0.00 0.00
2:35 am 02:35 Cloudy 32 0.2 15 -9.2 50 50 NW 6 9 30.48 1032 10 16 0.00 0.00
2:55 am 02:55 Mostly Cloudy 31 -0.4 15 -9.3 51 51 NW 8 13 30.48 1032 10 16 0.00 0.00
3:15 am 03:15 Partly Cloudy 31 -0.8 15 -9.2 53 53 W 7 11 30.49 1032 10 16 0.00 0.00
3:35 am 03:35 Partly Cloudy 30 -1.3 16 -8.9 57 57 WNW 7 11 30.50 1033 10 16 0.00 0.00
3:55 am 03:55 Clear 29 -1.7 17 -8.4 61 61 W 7 11 30.50 1033 10 16 0.00 0.00
4:15 am 04:15 Clear 28 -2 17 -8.2 63 63 W 6 9 30.51 1033 10 16 0.00 0.00
4:35 am 04:35 Clear 28 -2 17 -8.1 63 63 W 8 13 30.50 1033 10 16 0.00 0.00
4:55 am 04:55 Clear 28 -2.5 18 -7.9 67 67 WNW 7 11 30.51 1033 10 16 0.00 0.00
5:15 am 05:15 Clear 28 -2.5 18 -8 66 66 WNW 6 9 30.52 1034 10 16 0.00 0.00
5:35 am 05:35 Clear 27 -2.7 18 -7.8 68 68 W 3 6 30.53 1034 10 16 0.00 0.00
5:55 am 05:55 Mostly Cloudy 28 -2.5 19 -7.3 70 70 WNW 5 7 30.54 1034 10 16 0.00 0.00
6:15 am 06:15 Cloudy 29 -1.7 19 -7.3 66 66 Calm 30.54 1034 10 16 0.00 0.00
6:35 am 06:35 Cloudy 29 -1.6 19 -7.1 66 66 Calm 30.55 1035 10 16 0.00 0.00
6:55 am 06:55 Cloudy 29 -1.4 19 -7.2 65 65 Calm 30.55 1035 10 16 0.00 0.00
7:15 am 07:15 Cloudy 30 -1.3 19 -7.3 64 64 Calm 30.56 1035 10 16 0.00 0.00
7:35 am 07:35 Cloudy 30 -1.1 19 -7.2 64 64 W 7 11 30.57 1035 10 16 0.00 0.00
7:55 am 07:55 Cloudy 30 -1.1 19 -7.1 64 64 WNW 8 13 30.58 1036 10 16 0.00 0.00
8:15 am 08:15 Cloudy 31 -0.8 19 -7 63 63 WNW 7 11 30.58 1035 10 16 0.00 0.00
8:35 am 08:35 Cloudy 31 -0.5 20 -6.8 63 63 WNW 6 9 30.59 1036 10 16 0.00 0.00
8:55 am 08:55 Cloudy 32 -0.1 20 -6.7 61 61 NW 8 13 30.60 1036 10 16 0.00 0.00
9:15 am 09:15 Cloudy 33 0.6 20 -6.5 59 59 WNW 6 9 30.60 1036 10 16 0.00 0.00
9:35 am 09:35 Cloudy 34 1 20 -6.7 57 57 WNW 10 17 30.61 1037 10 16 0.00 0.00
9:55 am 09:55 Cloudy 35 1.5 20 -6.6 55 55 WNW 6 9 30.61 1037 10 16 0.00 0.00
10:15 am 10:15 Cloudy 35 1.9 20 -6.6 54 54 WNW 3 6 30.62 1037 10 16 0.00 0.00
10:35 am 10:35 Mostly Cloudy 37 2.8 20 -6.6 50 50 Calm 30.61 1037 10 16 0.00 0.00
10:55 am 10:55 Sunny 37 2.9 19 -7.2 48 48 Calm 30.61 1036 10 16 0.00 0.00
11:15 am 11:15 Partly Cloudy 38 3.3 19 -7.3 46 46 NNE 6 9 30.61 1036 10 16 0.00 0.00
11:35 am 11:35 Sunny 39 3.7 20 -6.9 46 46 ENE 12 19 30.60 1036 10 16 0.00 0.00
11:55 am 11:55 Sunny 39 3.9 19 -7 45 45 Calm 30.59 1036 10 16 0.00 0.00
12:15 pm 12:15 Sunny 39 3.8 19 -7.3 45 45 Calm 30.59 1036 10 16 0.00 0.00
12:35 pm 12:35 Sunny 39 4 19 -7.2 44 44 Calm 30.56 1035 10 16 0.00 0.00
12:55 pm 12:55 Sunny 40 4.5 20 -6.9 44 44 Calm 30.55 1035 10 16 0.00 0.00
1:15 pm 13:15 Sunny 41 4.9 20 -6.6 44 44 Calm 30.54 1034 10 16 0.00 0.00
1:35 pm 13:35 Sunny 41 4.8 20 -6.5 44 44 Calm 30.55 1035 10 16 0.00 0.00
3:15 pm 15:15 Sunny 42 5.3 20 -6.5 43 43 Calm 30.50 1033 10 16 0.00 0.00
3:35 pm 15:35 Sunny 41 5.2 21 -6.3 44 44 Calm 30.51 1033 10 16 0.00 0.00
3:55 pm 15:55 Sunny 41 4.9 21 -6.3 45 45 Calm 30.51 1033 10 16 0.00 0.00
4:15 pm 16:15 Sunny 41 5 21 -6.2 45 45 SE 7 11 30.50 1033 10 16 0.00 0.00
4:35 pm 16:35 Sunny 41 4.9 20 -6.5 44 44 S 7 11 30.51 1033 10 16 0.00 0.00
4:55 pm 16:55 Sunny 40 4.3 20 -6.6 45 45 Calm 30.51 1033 10 16 0.00 0.00
5:15 pm 17:15 Sunny 39 3.7 20 -6.7 47 47 Calm 30.51 1033 10 16 0.00 0.00
5:35 pm 17:35 Clear 38 3.4 20 -6.4 49 49 Calm 30.51 1033 10 16 0.00 0.00
5:55 pm 17:55 Clear 37 3 21 -6.1 52 52 Calm 30.50 1033 10 16 0.00 0.00
6:15 pm 18:15 Clear 37 2.7 21 -6.1 53 53 Calm 30.50 1033 10 16 0.00 0.00
6:35 pm 18:35 Clear 35 1.9 22 -5.8 57 57 Calm 30.50 1033 10 16 0.00 0.00
6:55 pm 18:55 Clear 35 1.6 22 -5.8 58 58 Calm 30.51 1033 10 16 0.00 0.00
7:15 pm 19:15 Clear 35 1.6 21 -5.9 58 58 Calm 30.51 1033 10 16 0.00 0.00
7:35 pm 19:35 Clear 35 1.6 21 -5.9 58 58 Calm 30.51 1033 10 16 0.00 0.00
7:55 pm 19:55 Clear 29 -1.6 26 -3.5 87 87 Calm 30.52 1034 10 16 0.00 0.00
8:15 pm 20:15 Clear 29 -1.9 25 -4 86 86 Calm 30.51 1033 10 16 0.00 0.00
8:35 pm 20:35 Clear 28 -2.2 25 -4 88 88 Calm 30.52 1034 10 16 0.00 0.00
8:55 pm 20:55 Clear 27 -2.6 24 -4.3 88 88 Calm 30.51 1033 10 16 0.00 0.00
9:15 pm 21:15 Clear 27 -2.8 25 -4 92 92 Calm 30.51 1033 10 16 0.00 0.00
9:35 pm 21:35 Clear 27 -2.7 24 -4.4 88 88 Calm 30.50 1033 10 16 0.00 0.00
9:55 pm 21:55 Clear 28 -2.4 24 -4.7 84 84 Calm 30.50 1033 10 16 0.00 0.00
10:15 pm 22:15 Clear 28 -2.3 25 -3.7 90 90 Calm 30.50 1033 10 16 0.00 0.00
10:35 pm 22:35 Clear 28 -2.3 26 -3.6 91 91 Calm 30.50 1033 10 16 0.00 0.00
10:55 pm 22:55 Clear 29 -1.8 23 -5 79 79 Calm 30.49 1033 10 16 0.00 0.00
11:15 pm 23:15 Clear 29 -1.6 24 -4.6 80 80 Calm 30.49 1033 10 16 0.00 0.00
11:35 pm 23:35 Clear 31 -0.4 22 -5.5 69 69 Calm 30.48 1032 10 16 0.00 0.00
11:55 pm 23:55 Clear 32 -0.2 22 -5.5 68 68 Calm 30.47 1032 10 16 0.00 0.00

Powered by AerisWeather